Stations météo

réclame
Mon MeteoGroup
Zwiesel, Allemagne (10796): Température de l'air & dewpoint: 12.01.2019 13:00:00 - 18.01.2019 13:00:00 (CET)Zwiesel, Allemagne (10796): Température de l'air 5cm & Température de l'air -5cm: 12.01.2019 13:00:00 - 18.01.2019 13:00:00 (CET)Zwiesel, Allemagne (10796): Température de l'air -20cm & Température de l'air -100cm: 12.01.2019 13:00:00 - 18.01.2019 13:00:00 (CET)Zwiesel, Allemagne (10796): Vitesse du vent & gusts: 12.01.2019 13:00:00 - 18.01.2019 13:00:00 (CET)Zwiesel, Allemagne (10796): Direction du vent: 12.01.2019 13:00:00 - 18.01.2019 13:00:00 (CET)Zwiesel, Allemagne (10796): reduced air pressure: 12.01.2019 13:00:00 - 18.01.2019 13:00:00 (CET)Zwiesel, Allemagne (10796): visibility: 12.01.2019 13:00:00 - 18.01.2019 13:00:00 (CET)Zwiesel, Allemagne (10796): Ensoleillement: 12.01.2019 13:00:00 - 18.01.2019 13:00:00 (CET)Zwiesel, Allemagne (10796): Quantités de précipitations: 12.01.2019 13:00:00 - 18.01.2019 13:00:00 (CET)
Date & Time tt [°C] td [°C] tt 5cm [°C] tt -5cm [°C] tt -20cm [°C] tt -100cm [°C] ff [km/h] ff [knt] fx [km/h] fx [knt] dd ppp [hPa] vv [km] sd [min] rr [mm]
18.01.2019 13:00:00 -1,5 -6,2 0,1 0,4 0,2 3,1 14 8 27 15 W 1020,7 38 0 0,0
18.01.2019 12:00:00 -1,4 -5,8 0,1 0,4 0,2 3,1 16 9 28 15 W 1020,5 20 0 0,0
18.01.2019 11:00:00 -1,6 -4,9 0,1 0,4 0,2 3,1 14 8 26 14 W 1020,3 20 0 0,1
18.01.2019 10:00:00 -1,5 -5,1 0,1 0,4 0,2 3,1 16 8 36 19 W 1019,4 19 0 0,1
18.01.2019 09:00:00 -1,5 -5,0 0,1 0,4 0,2 3,1 21 11 38 21 W 1018,1 29 0 0,6
18.01.2019 08:00:00 -1,4 -5,1 0,1 0,4 0,2 3,1 20 11 36 20 WNW 1017,0 14 0 0,0
18.01.2019 07:00:00 -1,4 -4,2 0,1 0,4 0,2 3,1 14 8 27 14 W 1015,8 22 0 0,1
18.01.2019 06:00:00 -1,2 -4,6 0,1 0,4 0,2 3,1 15 8 30 16 W 1014,6 37 0 0,0
18.01.2019 05:00:00 -0,9 -4,6 0,1 0,4 0,2 3,1 17 9 27 15 W 1014,1 57 0 0,0
18.01.2019 04:00:00 -0,8 -4,3 0,0 0,4 0,2 3,1 13 7 31 17 WNW 1013,7 70 0 0,0
18.01.2019 03:00:00 -0,4 -4,1 0,1 0,4 0,2 3,1 14 7 37 20 WNW 1013,3 14 0 0,0
18.01.2019 02:00:00 0,0 -3,1 0,1 0,4 0,2 3,1 27 14 51 28 WNW 1012,8 41 0 0,1
18.01.2019 01:00:00 0,6 -2,0 0,1 0,4 0,2 3,1 11 6 26 14 WSW 1011,7 43 0 0,0
18.01.2019 00:00:00 0,5 -1,4 0,1 0,4 0,2 3,1 11 6 32 17 W 1011,6 67 0 0,1
17.01.2019 23:00:00 1,0 -1,2 0,1 0,4 0,2 3,1 23 13 41 22 W 1010,6 18 0 0,4
17.01.2019 22:00:00 2,5 -0,5 0,1 0,4 0,2 3,1 14 8 29 16 WSW 1009,3 44 0 0,7
17.01.2019 21:00:00 2,8 -0,8 0,1 0,4 0,2 3,1 15 8 39 21 W 1009,0 60 0 0,0
17.01.2019 20:00:00 2,6 -0,2 0,1 0,4 0,2 3,1 14 7 29 16 SW 1009,0 70 0 0,1
17.01.2019 19:00:00 2,4 0,2 0,1 0,4 0,2 3,1 13 7 35 19 SW 1008,7 11 0 0,0
17.01.2019 18:00:00 2,5 0,2 0,1 0,4 0,2 3,1 10 6 26 14 S 1008,0 27 0 0,0
17.01.2019 17:00:00 3,5 0,2 0,1 0,4 0,2 3,1 11 6 31 17 SSW 1007,5 32 0 0,0
17.01.2019 16:00:00 3,6 0,2 0,1 0,4 0,2 3,1 5 3 16 9 S 1007,1 19 0 0,0
17.01.2019 15:00:00 3,6 -0,5 0,1 0,4 0,2 3,1 3 2 18 10 SW 1006,6 25 0 0,0
17.01.2019 14:00:00 3,7 -0,7 0,1 0,3 0,2 3,1 9 5 16 8 SW 1006,7 25 0 0,0
17.01.2019 13:00:00 3,2 -0,6 0,1 0,4 0,2 3,1 9 5 18 10 SSW 1007,6 26 0 0,0
17.01.2019 12:00:00 3,2 -0,5 0,1 0,4 0,2 3,1 9 5 22 12 SSW 1008,2 16 0 0,0
17.01.2019 11:00:00 2,5 -1,0 0,1 0,3 0,2 3,1 3 2 22 12 W 1009,0 29 1 0,0
17.01.2019 10:00:00 3,4 -3,0 0,1 0,3 0,2 3,1 3 1 15 8 WSW 1008,9 30 50 0,0
17.01.2019 09:00:00 1,0 -2,1 0,1 0,3 0,2 3,1 6 4 11 6 ESE 1009,5 26 0 0,0
17.01.2019 08:00:00 0,7 -1,6 0,1 0,4 0,2 3,1 5 3 18 10 ESE 1009,4 29 0 0,0
17.01.2019 07:00:00 -0,3 -2,3 0,1 0,4 0,2 3,1 8 4 16 8 SE 1009,8 16 0 0,0
17.01.2019 06:00:00 -5,4 -6,2 0,1 0,4 0,2 3,1 4 2 10 5 ENE 1011,7 16 0 0,0
17.01.2019 05:00:00 -6,4 -6,8 0,0 0,4 0,2 3,1 2 1 6 3 NNW 1012,0 7 0 0,0
17.01.2019 04:00:00 -6,1 -6,8 0,0 0,4 0,2 3,1 3 1 5 3 NNE 1012,1 6 0 0,0
17.01.2019 03:00:00 -5,5 -5,7 0,0 0,3 0,2 3,1 3 1 4 2 NNW 1012,2 0,5 0 0,0
17.01.2019 02:00:00 -4,8 -4,8 0,0 0,3 0,2 3,1 2 1 5 3 WNW 1012,2 0,2 0 0,0
17.01.2019 01:00:00 -4,7 -5,2 0,0 0,3 0,2 3,1 3 2 8 5 N 1012,7 4,6 0 0,0
17.01.2019 00:00:00 -4,1 -4,4 0,1 0,3 0,2 3,1 0 0 6 3 N 1012,9 1,9 0 0,0
16.01.2019 23:00:00 -3,7 -4,2 0,1 0,3 0,2 3,1 2 1 4 2 NNE 1013,3 3,3 0 0,0
16.01.2019 22:00:00 -2,3 -2,5 0,1 0,3 0,2 3,1 0 0 4 2 N 1013,3 13 0 0,0
16.01.2019 21:00:00 -2,1 -2,3 0,1 0,3 0,2 3,1 0 0 5 3 N 1013,3 8 0 0,0
16.01.2019 20:00:00 -2,3 -2,8 0,1 0,3 0,2 3,1 2 1 6 3 N 1013,8 6 0 0,0
16.01.2019 19:00:00 -1,4 -2,5 0,1 0,3 0,2 3,1 3 1 9 5 SSW 1013,9 10 0 0,0
16.01.2019 18:00:00 -0,7 -2,2 0,1 0,3 0,2 3,1 3 2 8 4 ENE 1013,9 17 0 0,0
16.01.2019 17:00:00 0,3 -2,0 0,1 0,3 0,2 3,1 3 2 7 4 ESE 1014,2 21 15 0,0
16.01.2019 16:00:00 1,9 -2,0 0,1 0,3 0,2 3,1 4 2 17 9 SSE 1013,8 22 10 0,0
16.01.2019 15:00:00 1,9 -2,3 0,1 0,3 0,2 3,1 9 5 17 9 SSE 1014,4 29 13 0,0
16.01.2019 14:00:00 2,2 -3,0 0,1 0,3 0,2 3,1 6 4 12 7 SSE 1015,0 30 28 0,0
16.01.2019 13:00:00 1,6 -3,1 0,1 0,3 0,2 3,1 10 5 19 10 WSW 1015,9 33 10 0,0
16.01.2019 12:00:00 1,6 -2,8 0,1 0,3 0,2 3,1 8 5 19 10 SSW 1016,7 28 0 0,0
16.01.2019 11:00:00 1,4 -2,3 0,1 0,3 0,2 3,1 8 5 21 11 SSW 1017,4 29 0 0,0
16.01.2019 10:00:00 1,0 -1,8 0,1 0,3 0,2 3,1 6 3 15 8 SSW 1017,8 22 0 0,0
16.01.2019 09:00:00 0,8 -1,7 0,1 0,3 0,2 3,1 6 3 11 6 SSW 1017,9 19 0 0,0
16.01.2019 08:00:00 0,7 -1,7 0,1 0,3 0,2 3,1 11 6 21 11 SW 1017,8 26 0 0,0
16.01.2019 07:00:00 0,9 -1,6 0,1 0,3 0,2 3,1 8 4 16 9 SW 1017,7 34 0 0,0
16.01.2019 06:00:00 0,8 -1,4 0,1 0,3 0,2 3,1 8 4 26 14 SSW 1017,7 36 0 0,0
16.01.2019 05:00:00 1,2 -1,9 0,1 0,3 0,2 3,1 10 5 29 16 WSW 1018,0 44 0 0,0
16.01.2019 04:00:00 1,3 -1,7 0,1 0,3 0,2 3,1 14 8 26 14 WSW 1018,2 40 0 0,0
16.01.2019 03:00:00 1,3 -1,3 0,1 0,3 0,2 3,1 9 5 21 12 SW 1018,5 33 0 0,0
16.01.2019 02:00:00 1,2 -1,4 0,1 0,3 0,2 3,1 11 6 27 14 WSW 1018,7 32 0 0,0
16.01.2019 01:00:00 1,2 -1,3 0,1 0,3 0,2 3,1 16 9 29 16 WSW 1018,9 32 0 0,0
16.01.2019 00:00:00 1,1 -1,2 0,1 0,3 0,2 3,1 10 5 29 16 WSW 1019,3 26 0 0,0
15.01.2019 23:00:00 1,0 -1,3 0,1 0,3 0,2 3,1 17 9 36 20 WSW 1019,5 27 0 0,1
15.01.2019 22:00:00 1,0 -1,5 0,1 0,3 0,2 3,1 18 10 29 16 WSW 1019,3 28 0 0,0
15.01.2019 21:00:00 0,7 -1,0 0,1 0,3 0,2 3,1 9 5 24 13 WSW 1019,3 22 0 0,3
15.01.2019 20:00:00 0,8 -1,9 0,1 0,3 0,2 3,1 16 9 27 15 WSW 1019,2 18 0 0,0
15.01.2019 19:00:00 0,7 -1,7 0,1 0,3 0,2 3,1 15 8 24 13 SW 1019,3 20 0 0,1
15.01.2019 18:00:00 0,2 -1,5 0,1 0,3 0,2 3,1 15 8 26 14 SW 1019,3 18 0 0,3
15.01.2019 17:00:00 0,2 -2,0 0,1 0,3 0,2 3,1 12 7 20 11 SW 1019,6 3,6 0 0,0
15.01.2019 16:00:00 0,3 -2,4 0,1 0,3 0,2 3,1 12 7 29 16 SW 1019,5 28 0 0,0
15.01.2019 15:00:00 0,2 -2,5 0,1 0,3 0,2 3,1 19 10 34 19 WSW 1019,2 34 0 0,2
15.01.2019 14:00:00 -0,3 -2,4 0,1 0,3 0,2 3,1 16 9 42 23 WSW 1019,8 13 0 0,1
15.01.2019 13:00:00 -0,4 -3,0 0,1 0,3 0,2 3,1 16 8 28 15 SW 1020,2 25 0 0,0
15.01.2019 12:00:00 -0,6 -3,6 0,1 0,3 0,2 3,1 20 11 40 22 WSW 1020,9 28 0 0,0
15.01.2019 11:00:00 -0,6 -4,2 0,1 0,3 0,2 3,1 22 12 36 19 WSW 1021,4 25 0 0,0
15.01.2019 10:00:00 -0,9 -4,6 0,1 0,3 0,2 3,1 21 11 42 23 W 1021,3 39 0 0,0
15.01.2019 09:00:00 -1,0 -4,4 0,1 0,3 0,1 3,1 18 10 35 19 W 1020,9 40 0 0,0
15.01.2019 08:00:00 -1,3 -4,1 0,1 0,3 0,1 3,1 11 6 31 17 W 1020,7 6 0 0,1
15.01.2019 07:00:00 -1,2 -4,3 0,1 0,3 0,1 3,1 16 8 43 23 W 1020,1 28 0 0,0
15.01.2019 06:00:00 -1,4 -4,3 0,1 0,3 0,1 3,1 18 10 53 28 W 1019,4 43 0 0,0
15.01.2019 05:00:00 -1,9 -3,8 0,1 0,3 0,1 3,1 19 10 36 20 W 1018,8 1,6 0 0,3
15.01.2019 04:00:00 -1,6 -4,7 0,1 0,3 0,1 3,1 21 11 42 23 W 1018,5 52 0 0,0
15.01.2019 03:00:00 -1,7 -4,8 0,1 0,3 0,1 3,1 17 9 44 24 W 1018,2 49 0 0,0
15.01.2019 02:00:00 -1,6 -5,4 0,1 0,3 0,1 3,1 22 12 40 22 W 1017,6 18 0 0,0
15.01.2019 01:00:00 -2,1 -5,3 0,1 0,3 0,1 3,1 8 4 16 8 WSW 1017,3 67 0 0,1
15.01.2019 00:00:00 -2,3 -4,6 0,1 0,3 0,1 3,1 5 3 14 8 S 1016,7 49 0 0,0
14.01.2019 23:00:00 -1,6 -4,7 0,0 0,3 0,1 3,1 9 5 39 21 NNW 1016,1 23 0 0,1
14.01.2019 22:00:00 -1,4 -5,8 0,1 0,3 0,1 3,1 19 10 41 22 NNW 1015,5 51 0 0,0
14.01.2019 21:00:00 -1,3 -5,6 0,1 0,3 0,1 3,1 27 14 55 30 NNW 1014,8 6 0 0,0
14.01.2019 20:00:00 -1,7 -4,0 0,1 0,3 0,1 3,1 25 14 45 24 NW 1013,9 0,5 0 0,2
14.01.2019 19:00:00 -0,4 -5,1 0,1 0,3 0,1 3,1 16 8 41 22 NW 1012,0 70 0 0,0
14.01.2019 18:00:00 -0,7 -4,8 0,1 0,3 0,1 3,1 26 14 48 26 NW 1011,1 70 0 0,2
14.01.2019 17:00:00 -0,3 -3,0 0,1 0,3 0,1 3,1 22 12 43 23 NNW 1009,5 2,0 0 0,3
14.01.2019 16:00:00 1,3 -4,0 0,1 0,3 0,1 3,1 26 14 52 28 NW 1007,7 37 7 0,0
14.01.2019 15:00:00 1,1 -3,6 0,1 0,3 0,1 3,1 25 13 46 25 W 1007,0 14 25 0,0
14.01.2019 14:00:00 1,1 -3,0 0,1 0,3 0,2 3,1 18 10 42 23 WNW 1007,0 21 0 0,0
14.01.2019 13:00:00 1,0 -3,0 0,1 0,3 0,2 3,1 25 13 45 24 WNW 1007,3 13 0 0,1
14.01.2019 12:00:00 0,8 -3,0 0,1 0,3 0,2 3,1 21 11 36 19 W 1007,3 31 0 0,0
14.01.2019 11:00:00 1,1 -3,6 0,1 0,3 0,2 3,1 10 5 49 26 W 1007,2 41 12 0,0
14.01.2019 10:00:00 1,3 -3,4 0,1 0,3 0,2 3,1 16 8 33 18 W 1006,7 45 11 0,0
14.01.2019 09:00:00 1,4 -1,6 0,1 0,3 0,2 3,1 9 5 30 16 WNW 1005,1 62 0 0,0
14.01.2019 08:00:00 1,5 -2,5 0,0 0,3 0,2 3,2 11 6 41 22 NW 1004,1 64 0 0,0
14.01.2019 07:00:00 2,8 -2,2 0,0 0,3 0,2 3,2 19 11 48 26 NW 1002,1 70 0 0,5
14.01.2019 06:00:00 1,8 0,1 0,1 0,3 0,2 3,2 28 15 47 26 W 1000,7 8 0 0,1
14.01.2019 05:00:00 2,2 0,2 0,1 0,3 0,3 3,2 20 11 38 21 W 1000,5 29 0 0,6
14.01.2019 04:00:00 2,3 0,3 0,1 0,3 0,3 3,3 20 11 41 22 WNW 1000,0 10 0 0,8
14.01.2019 03:00:00 2,3 0,3 0,1 0,4 0,3 3,3 18 10 35 19 W 999,5 6 0 0,3
14.01.2019 02:00:00 2,4 -0,1 0,1 0,4 0,3 3,4 14 8 57 31 WNW 999,0 7 0 0,0
14.01.2019 01:00:00 2,1 0,5 0,1 0,4 0,3 3,4 17 9 41 22 WNW 998,0 28 0 2,8
14.01.2019 00:00:00 2,9 1,7 0,1 0,4 0,3 3,4 18 10 29 16 W 997,3 3,8 0 1,1
13.01.2019 23:00:00 1,3 0,7 0,1 0,4 0,3 3,4 6 3 16 9 WNW 998,3 54 0 2,4
13.01.2019 22:00:00 1,7 1,0 0,1 0,4 0,3 3,4 5 3 13 7 WNW 998,6 2,3 0 2,8
13.01.2019 21:00:00 1,1 0,9 0,1 0,4 0,3 3,4 7 4 16 9 WSW 999,7 2,5 0 2,5
13.01.2019 20:00:00 1,0 0,5 0,1 0,4 0,3 3,4 9 5 19 11 WSW 1000,7 4,3 0 1,5
13.01.2019 19:00:00 0,3 -0,1 0,1 0,4 0,3 3,4 4 2 13 7 S 1001,8 2,9 0 1,6
13.01.2019 18:00:00 0,3 0,0 0,1 0,4 0,3 3,4 5 3 14 8 SSW 1002,6 2,1 0 2,3
13.01.2019 17:00:00 0,1 -0,3 0,1 0,4 0,3 3,4 8 4 17 9 SSE 1003,7 1,1 0 2,5
13.01.2019 16:00:00 0,4 -0,3 0,1 0,4 0,3 3,4 9 5 23 12 S 1004,6 2,5 0 1,3
13.01.2019 15:00:00 0,7 -0,1 0,1 0,4 0,3 3,4 10 5 18 10 SSW 1005,4 3,2 0 0,3
13.01.2019 14:00:00 0,7 -0,1 0,1 0,4 0,3 3,4 9 5 18 10 SSW 1006,5 10 0 1,8
13.01.2019 13:00:00 0,5 -0,2 0,1 0,4 0,3 3,4 8 4 19 10 SSW 1008,1 3,2 0 2,1
13.01.2019 12:00:00 0,8 -0,2 0,0 0,4 0,3 3,4 9 5 15 8 W 1009,2 8 0 0,4
13.01.2019 11:00:00 0,4 -0,3 0,1 0,4 0,3 3,4 5 3 9 5 SSW 1010,6 4,2 0 0,8
13.01.2019 10:00:00 0,4 -0,3 0,1 0,4 0,3 3,4 4 2 7 4 SSW 1011,5 15 0 0,8
13.01.2019 09:00:00 0,2 -0,2 0,1 0,4 0,3 3,4 3 1 8 4 SW 1011,9 4,0 0 1,0
13.01.2019 08:00:00 0,1 -0,2 0,1 0,4 0,3 3,4 3 1 5 3 SSW 1012,0 3,2 0 0,2
13.01.2019 07:00:00 0,3 -0,1 0,1 0,4 0,3 3,4 4 2 11 6 W 1011,9 5 0 0,3
13.01.2019 06:00:00 -0,1 -0,5 0,1 0,4 0,3 3,4 4 2 5 3 SSE 1012,2 1,3 0 0,6
13.01.2019 05:00:00 -0,1 -0,4 0,0 0,4 0,3 3,4 1 1 5 3 SSW 1012,2 1,4 0 1,0
13.01.2019 04:00:00 -0,3 -0,6 0,1 0,4 0,3 3,4 4 2 6 3 S 1012,2 1,6 0 0,6
13.01.2019 03:00:00 -0,5 -0,9 0,1 0,4 0,3 3,4 3 2 5 3 SSE 1012,5 1,2 0 1,6
13.01.2019 02:00:00 -0,4 -0,9 0,1 0,4 0,3 3,4 4 2 6 4 S 1012,5 0,8 0 1,5
13.01.2019 01:00:00 -0,4 -0,9 0,1 0,4 0,3 3,4 5 3 11 6 S 1012,7 1,1 0 1,8
13.01.2019 00:00:00 -0,3 -0,9 0,1 0,4 0,3 3,4 6 3 18 10 S 1013,2 1,0 0 1,6
12.01.2019 23:00:00 -0,3 -0,8 0,1 0,4 0,3 3,4 8 4 16 9 SW 1014,1 1,1 0 1,7
12.01.2019 22:00:00 -0,2 -0,7 0,1 0,4 0,3 3,4 6 3 13 7 SSW 1014,8 1,1 0 2,3
12.01.2019 21:00:00 -0,1 -0,5 0,1 0,4 0,3 3,4 6 3 16 9 SW 1015,4 1,1 0 2,7
12.01.2019 20:00:00 -0,1 -0,6 0,1 0,4 0,3 3,4 5 3 13 7 S 1016,2 0,6 0 2,3
12.01.2019 19:00:00 0,1 -0,6 0,1 0,4 0,3 3,4 6 3 19 10 SSE 1017,1 1,1 0 0,8
12.01.2019 18:00:00 0,1 -0,9 0,1 0,4 0,3 3,5 10 5 22 12 SW 1017,6 7 0 0,0
12.01.2019 17:00:00 0,2 -1,2 0,1 0,4 0,3 3,5 10 5 26 14 SW 1018,2 19 0 0,0
12.01.2019 16:00:00 0,1 -0,9 0,1 0,4 0,3 3,5 10 5 27 15 SW 1018,8 10 0 0,1
12.01.2019 15:00:00 0,0 -0,9 0,1 0,4 0,3 3,5 9 5 19 11 SW 1019,4 14 0 0,1
12.01.2019 14:00:00 -0,1 -1,2 0,1 0,4 0,3 3,5 9 5 17 9 SW 1020,0 18 0 0,1
12.01.2019 13:00:00 -0,1 -0,9 0,1 0,4 0,3 3,5 6 3 13 7 W 1020,7 10 0 0,2

tt = Température de l'air
td = dewpoint
tt 5cm = Température de l'air 5cm
tt -5cm = Température de l'air -5cm
tt -20cm = Température de l'air -20cm
tt -100cm = Température de l'air -100cm
ff = Vitesse du vent
fx = gusts
dd = Direction du vent
ppp = reduced air pressure
vv = visibility
sd = Ensoleillement
rr = Quantités de précipitations

stations d'obs. à proximité